Precipitable_Water
0.08 0.05 0.05 0.07 0.08 0.08 0.08 0.09 0.08 0.09 0.13 0.12 0.15 0.16 0.18 0.19 0.22 0.21 0.21 0.21 0.24 0.33 0.45 0.49 0.53 0.69 0.85 1.05 1.18 1.40 1.55 1.60 1.47 1.45 1.50 1.48 1.32 1.33 1.20 1.17 1.08 1.02 1.04 0.99
0.06 0.05 0.08 0.08 0.07 0.07 0.08 0.07 0.08 0.08 0.10 0.11 0.16 0.15 0.18 0.18 0.18 0.20 0.21 0.21 0.25 0.32 0.44 0.48 0.52 0.66 0.74 0.91 1.01 1.28 1.24 1.51 1.40 1.48 1.43 1.55 1.42 1.33 1.21 1.16 1.08 1.00 0.91 0.94
0.06 0.06 0.08 0.07 0.07 0.06 0.07 0.08 0.08 0.07 0.07 0.11 0.13 0.13 0.15 0.18 0.18 0.19 0.22 0.24 0.25 0.33 0.41 0.47 0.50 0.61 0.71 0.89 1.05 1.02 1.15 1.35 1.48 1.51 1.42 1.55 1.55 1.38 1.21 1.15 1.06 0.95 0.85 0.89
0.05 0.07 0.07 0.07 0.06 0.07 0.06 0.08 0.08 0.08 0.07 0.07 0.15 0.08 0.13 0.15 0.15 0.17 0.19 0.23 0.25 0.32 0.40 0.46 0.49 0.57 0.66 0.87 0.95 0.97 1.12 1.22 1.24 1.46 1.41 1.38 1.39 1.22 1.15 1.08 0.99 0.84 0.86 0.87
0.05 0.06 0.06 0.06 0.07 0.08 0.07 0.09 0.10 0.09 0.07 0.09 0.12 0.10 0.11 0.14 0.13 0.16 0.17 0.22 0.25 0.28 0.38 0.45 0.49 0.54 0.63 0.78 0.82 1.00 1.07 1.22 1.24 1.27 1.37 1.37 1.37 1.37 1.24 1.14 0.98 0.86 0.86 0.89
0.07 0.09 0.08 0.08 0.08 0.08 0.09 0.08 0.10 0.10 0.08 0.06 0.10 0.10 0.09 0.11 0.12 0.15 0.18 0.20 0.25 0.25 0.35 0.43 0.48 0.53 0.59 0.69 0.85 0.95 1.02 1.10 1.24 1.26 1.27 1.37 1.32 1.33 1.24 1.11 1.00 0.86 0.89 0.88
0.06 0.06 0.07 0.09 0.06 0.07 0.07 0.06 0.04 0.04 0.04 0.05 0.11 0.10 0.10 0.13 0.15 0.16 0.17 0.19 0.24 0.27 0.33 0.41 0.44 0.49 0.55 0.66 0.73 0.89 0.91 1.02 1.07 1.23 1.25 1.25 1.31 1.30 1.27 1.11 1.01 0.91 0.92 0.88
0.05 0.03 0.05 0.08 0.08 0.06 0.06 0.06 0.05 0.03 0.04 0.05 0.10 0.08 0.10 0.15 0.17 0.18 0.19 0.20 0.22 0.27 0.33 0.39 0.41 0.46 0.52 0.61 0.69 0.77 0.89 0.95 1.07 1.10 1.20 1.23 1.24 1.31 1.32 1.18 1.11 0.96 0.95 0.97
0.05 0.04 0.07 0.08 0.09 0.08 0.06 0.05 0.09 0.06 0.07 0.05 0.07 0.10 0.13 0.15 0.15 0.16 0.17 0.19 0.20 0.26 0.33 0.36 0.41 0.43 0.49 0.60 0.67 0.72 0.80 0.90 0.96 1.04 1.13 1.19 1.33 1.20 1.25 1.24 1.22 1.11 1.00 1.00
0.08 0.05 0.06 0.06 0.08 0.08 0.07 0.08 0.05 0.06 0.04 0.04 0.06 0.07 0.09 0.11 0.13 0.15 0.16 0.17 0.19 0.24 0.32 0.36 0.39 0.41 0.45 0.56 0.66 0.70 0.76 0.84 0.92 0.99 1.05 1.15 1.17 1.21 1.22 1.26 1.22 1.21 1.09 1.02
0.10 0.07 0.05 0.06 0.05 0.06 0.06 0.05 0.06 0.06 0.06 0.04 0.04 0.06 0.11 0.11 0.13 0.14 0.15 0.17 0.18 0.23 0.29 0.34 0.37 0.39 0.44 0.53 0.60 0.66 0.76 0.82 0.88 0.95 1.04 1.07 1.15 1.17 1.18 1.26 1.22 1.26 1.21 1.06
0.11 0.07 0.05 0.04 0.06 0.08 0.07 0.06 0.06 0.04 0.04 0.05 0.05 0.05 0.11 0.12 0.13 0.14 0.15 0.16 0.19 0.22 0.28 0.32 0.36 0.40 0.41 0.48 0.54 0.61 0.68 0.76 0.79 0.88 0.95 1.01 1.05 1.15 1.23 1.20 1.23 1.24 1.27 1.16
0.10 0.06 0.04 0.04 0.05 0.06 0.05 0.05 0.06 0.06 0.06 0.04 0.03 0.04 0.09 0.10 0.11 0.13 0.14 0.16 0.18 0.20 0.24 0.29 0.34 0.37 0.40 0.44 0.51 0.57 0.59 0.69 0.76 0.81 0.88 0.96 1.00 1.06 1.14 1.17 1.20 1.25 1.26 1.22
0.11 0.07 0.05 0.04 0.04 0.05 0.04 0.04 0.05 0.06 0.04 0.04 0.04 0.04 0.06 0.07 0.09 0.11 0.12 0.15 0.17 0.19 0.20 0.25 0.31 0.35 0.38 0.40 0.46 0.53 0.57 0.62 0.68 0.73 0.82 0.88 0.95 0.99 1.04 1.11 1.13 1.21 1.28 1.26
0.11 0.07 0.07 0.06 0.06 0.06 0.05 0.04 0.05 0.04 0.04 0.04 0.04 0.04 0.05 0.07 0.08 0.10 0.11 0.13 0.16 0.18 0.19 0.21 0.27 0.31 0.36 0.38 0.43 0.49 0.53 0.58 0.63 0.70 0.72 0.78 0.85 0.93 1.00 1.04 1.08 1.17 1.20 1.26
0.13 0.09 0.09 0.06 0.06 0.07 0.04 0.04 0.05 0.05 0.05 0.05 0.04 0.03 0.06 0.08 0.08 0.08 0.09 0.11 0.13 0.15 0.18 0.19 0.23 0.27 0.33 0.36 0.40 0.44 0.47 0.52 0.57 0.59 0.63 0.71 0.79 0.84 0.90 0.96 1.01 1.07 1.12 1.16
0.13 0.11 0.10 0.06 0.07 0.06 0.04 0.04 0.05 0.05 0.05 0.04 0.03 0.03 0.05 0.05 0.06 0.07 0.07 0.09 0.12 0.13 0.15 0.19 0.20 0.24 0.27 0.32 0.36 0.39 0.44 0.48 0.52 0.54 0.58 0.63 0.67 0.74 0.84 0.88 0.93 0.99 1.03 1.09
0.13 0.12 0.12 0.08 0.07 0.04 0.05 0.07 0.07 0.05 0.05 0.05 0.04 0.04 0.05 0.05 0.06 0.07 0.07 0.07 0.10 0.12 0.14 0.17 0.19 0.21 0.25 0.28 0.32 0.35 0.40 0.43 0.47 0.51 0.53 0.58 0.63 0.66 0.72 0.78 0.84 0.87 0.94 1.00
0.17 0.14 0.11 0.09 0.07 0.07 0.06 0.06 0.06 0.05 0.04 0.04 0.04 0.04 0.04 0.05 0.06 0.04 0.07 0.09 0.09 0.11 0.14 0.16 0.19 0.20 0.23 0.25 0.29 0.32 0.34 0.37 0.40 0.45 0.49 0.53 0.57 0.61 0.64 0.68 0.75 0.81 0.85 0.87
0.18 0.17 0.12 0.10 0.08 0.06 0.07 0.08 0.09 0.08 0.03 0.05 0.05 0.04 0.04 0.05 0.03 0.03 0.06 0.08 0.09 0.10 0.13 0.15 0.17 0.19 0.20 0.23 0.25 0.28 0.30 0.32 0.35 0.39 0.44 0.50 0.54 0.57 0.60 0.63 0.68 0.73 0.78 0.82
0.16 0.15 0.12 0.11 0.10 0.09 0.09 0.10 0.10 0.05 0.04 0.05 0.05 0.05 0.05 0.04 0.05 0.06 0.07 0.08 0.09 0.10 0.11 0.15 0.15 0.16 0.18 0.21 0.24 0.25 0.27 0.29 0.32 0.35 0.39 0.45 0.50 0.54 0.57 0.60 0.64 0.66 0.69 0.73
0.16 0.14 0.12 0.11 0.10 0.09 0.11 0.10 0.07 0.07 0.07 0.06 0.06 0.05 0.05 0.06 0.06 0.07 0.07 0.07 0.08 0.09 0.10 0.12 0.13 0.15 0.17 0.19 0.21 0.22 0.24 0.27 0.29 0.31 0.32 0.37 0.43 0.49 0.53 0.55 0.58 0.62 0.63 0.64
0.16 0.16 0.14 0.13 0.13 0.14 0.13 0.11 0.10 0.09 0.07 0.06 0.06 0.06 0.06 0.06 0.06 0.07 0.07 0.07 0.08 0.09 0.10 0.11 0.12 0.14 0.16 0.18 0.20 0.20 0.22 0.25 0.27 0.28 0.30 0.31 0.35 0.41 0.47 0.51 0.53 0.55 0.58 0.58
0.20 0.19 0.17 0.15 0.16 0.15 0.14 0.13 0.12 0.10 0.08 0.07 0.07 0.06 0.07 0.06 0.06 0.07 0.07 0.07 0.08 0.09 0.09 0.11 0.11 0.12 0.14 0.16 0.18 0.19 0.21 0.23 0.24 0.25 0.26 0.29 0.29 0.32 0.38 0.45 0.49 0.51 0.52 0.53
0.20 0.20 0.18 0.17 0.17 0.17 0.16 0.14 0.12 0.10 0.09 0.08 0.07 0.06 0.06 0.07 0.06 0.07 0.07 0.08 0.08 0.09 0.10 0.10 0.10 0.11 0.12 0.15 0.16 0.18 0.19 0.20 0.21 0.23 0.24 0.27 0.27 0.28 0.30 0.34 0.42 0.46 0.50 0.53
0.21 0.20 0.19 0.17 0.18 0.17 0.16 0.15 0.14 0.12 0.10 0.08 0.06 0.06 0.07 0.07 0.07 0.07 0.07 0.08 0.08 0.09 0.10 0.09 0.10 0.11 0.11 0.13 0.15 0.16 0.18 0.19 0.19 0.20 0.22 0.24 0.24 0.25 0.27 0.29 0.30 0.37 0.44 0.47
Wind_Speed
40 43 43 38 33 26 23 19 17 17 14 13 13 13 11 13 12 15 21 27 32 37 39 38 37 39 41 39 41 40 50 53 50 49 46 44 41 38 36 35 36 37 38 38
39 42 42 38 34 31 22 21 15 15 14 11 10 8 10 9 10 12 16 23 29 34 37 36 36 38 39 39 44 37 46 48 53 51 48 45 41 38 37 36 36 36 38 39
37 38 42 40 36 32 27 18 17 20 18 14 16 14 9 9 8 9 12 18 25 31 34 36 34 36 38 42 37 45 42 39 49 51 49 47 43 40 40 39 38 37 38 39
35 39 41 39 36 33 25 25 23 15 6 6 8 11 7 9 8 7 11 14 22 27 33 34 34 36 39 38 39 43 39 44 47 50 51 49 46 42 40 38 37 37 38 39
36 38 41 39 38 33 26 28 15 8 3 5 4 8 8 9 8 7 9 14 17 25 30 32 32 36 39 40 39 38 49 34 47 46 50 50 48 44 42 39 38 39 39 39
34 35 37 36 37 29 34 20 10 5 1 3 5 7 5 6 8 9 9 13 15 22 27 29 32 36 34 38 37 40 39 48 39 40 44 49 49 46 43 42 41 40 40 39
36 34 38 39 34 28 32 21 11 7 4 3 4 4 7 6 6 7 10 12 16 18 25 26 30 32 36 33 37 32 42 40 45 41 42 45 47 48 46 44 42 42 41 41
35 35 38 38 33 29 28 21 12 7 6 5 3 4 9 7 7 7 9 11 16 17 22 22 29 31 30 32 37 37 35 42 40 41 44 45 44 47 47 46 44 43 43 42
32 31 34 35 33 32 26 23 14 8 4 4 4 6 7 8 7 7 8 10 14 18 20 18 24 30 31 28 27 34 40 39 42 41 43 44 44 45 46 48 47 45 44 43
30 31 31 33 31 31 26 23 18 13 8 5 5 6 6 8 9 9 9 10 14 18 19 18 21 29 31 29 27 27 32 38 40 34 46 41 45 45 46 46 49 47 46 45
30 28 31 31 31 29 28 24 20 12 8 5 6 6 7 8 10 11 10 11 14 19 20 19 18 26 30 30 26 21 26 35 35 33 35 38 45 44 45 46 47 49 48 47
28 26 30 27 29 28 27 22 20 14 12 7 5 8 7 9 10 10 11 11 12 18 20 21 19 23 29 30 26 26 26 24 33 35 40 33 37 43 42 45 46 46 49 49
27 28 31 31 29 27 27 25 20 17 13 8 5 9 9 11 11 10 10 11 13 16 20 21 19 21 26 31 31 28 27 23 23 28 33 37 35 38 39 42 45 47 48 49
26 25 23 23 24 26 27 25 22 18 14 10 10 13 14 12 12 12 12 11 13 16 20 21 20 20 23 27 30 29 29 29 24 25 25 28 31 36 39 39 37 48 47 48
24 24 24 26 26 26 24 26 22 18 15 12 13 12 16 15 14 14 13 13 12 14 16 22 23 20 22 26 28 29 31 32 31 26 26 26 29 26 38 36 36 36 40 47
25 24 26 28 26 24 26 25 24 21 19 19 15 17 13 14 15 15 15 14 14 14 17 19 23 25 22 23 27 28 30 32 32 29 29 29 27 29 28 27 31 35 40 38
23 24 27 25 29 27 23 22 22 23 21 18 16 17 14 15 15 16 17 17 17 17 17 20 21 23 25 24 26 27 29 31 32 32 32 31 30 30 29 30 29 31 33 37
21 23 24 25 30 24 24 24 24 23 24 19 20 20 15 14 15 18 19 19 19 19 19 19 22 23 24 26 27 28 28 29 32 33 33 32 31 31 30 29 29 31 30 27
20 22 24 23 25 26 24 24 24 24 27 21 19 21 18 14 14 15 17 19 20 20 20 21 21 23 25 26 28 29 28 29 31 33 34 33 33 33 33 31 30 31 30 30
21 21 21 23 23 22 24 26 26 27 25 23 22 22 19 15 14 14 15 18 21 22 22 22 23 23 23 25 27 28 29 29 29 31 33 34 33 33 33 33 31 31 31 29
21 21 20 21 22 25 24 25 25 27 27 26 25 24 20 17 15 15 14 17 20 22 24 24 24 25 25 24 26 28 29 29 29 30 32 32 33 33 33 33 33 33 32 32
18 18 20 21 23 24 23 26 23 27 29 28 27 26 22 20 18 16 16 17 19 22 23 25 25 26 27 27 26 26 28 29 30 30 31 32 33 33 33 34 34 33 33 34
20 18 20 18 22 25 22 26 29 29 29 29 28 27 24 21 18 17 16 15 18 20 22 24 26 27 27 29 27 26 27 30 31 31 31 32 33 33 33 33 34 34 34 35
21 20 22 24 25 25 26 29 29 29 29 30 29 28 25 22 19 18 17 15 16 19 21 23 26 27 28 28 28 28 27 28 30 32 32 33 33 33 34 34 34 34 34 34
20 20 22 25 29 28 27 28 28 29 30 30 30 28 26 23 21 18 17 16 16 18 20 22 25 28 29 29 30 30 30 30 29 30 31 32 33 34 34 35 35 34 34 34
17 19 20 23 26 26 28 29 29 30 31 30 29 29 26 23 21 19 18 17 16 17 19 22 23 26 28 30 30 30 30 30 30 30 30 31 33 34 35 35 36 36 36 35
Wind_Direction
354 357 355 351 347 339 326 320 307 296 282 282 255 224 234 235 231 230 227 220 216 214 216 215 215 213 214 212 209 210 207 204 204 203 202 202 202 203 204 204 204 204 203 202
356 1 356 353 350 344 337 325 320 304 292 274 234 216 219 222 223 227 226 219 215 214 213 213 214 212 210 213 210 213 202 204 202 201 203 203 203 204 204 204 204 204 203 202
-0 357 356 356 354 350 342 331 320 307 300 257 232 227 228 222 224 229 222 216 211 211 212 212 212 211 211 212 213 218 212 197 200 204 203 202 202 203 203 204 204 204 203 202
360 358 358 357 356 353 342 337 321 307 273 222 214 212 221 234 231 241 235 223 214 212 211 210 212 211 209 210 212 213 212 216 205 204 202 203 203 204 204 204 205 204 203 203
359 359 359 0 356 354 344 337 329 317 235 231 225 219 242 222 237 265 246 227 217 213 210 210 211 210 214 211 213 212 210 206 207 202 204 203 203 204 204 205 205 204 203 204
1 2 4 2 356 357 352 352 1 12 292 192 286 229 229 216 247 258 250 227 220 214 210 210 210 210 209 214 213 210 214 213 214 204 203 206 206 205 205 205 205 205 205 205
1 3 3 5 2 3 6 10 1 5 2 230 308 189 212 234 249 253 252 235 221 213 208 212 210 211 213 214 214 211 216 212 216 209 206 207 208 207 207 207 207 207 207 207
5 2 6 3 9 2 8 16 17 355 343 293 292 220 215 227 246 260 248 236 221 213 208 212 212 211 211 215 217 218 214 214 215 213 212 209 209 210 210 210 210 210 210 210
4 1 3 6 9 9 4 12 6 355 339 286 276 251 232 255 268 274 266 244 226 215 210 215 214 211 211 212 213 219 218 218 218 217 214 215 208 211 212 212 213 213 213 212
1 360 5 4 10 11 14 9 9 5 3 329 288 248 243 281 281 282 277 254 234 219 213 217 216 212 213 213 215 221 211 214 217 219 215 214 214 214 213 214 215 215 215 214
4 6 1 6 9 8 9 10 11 10 4 331 297 256 243 265 271 274 272 258 237 220 217 220 219 213 213 211 215 214 213 217 214 213 212 213 213 214 214 215 217 217 217 217
0 4 0 1 4 10 12 10 10 9 341 332 297 270 262 267 274 270 267 262 242 221 220 222 226 219 215 213 214 216 217 217 220 221 219 216 214 214 215 216 218 219 219 219
360 1 1 4 6 8 8 6 8 5 356 325 313 281 287 278 271 270 265 263 244 228 222 221 225 220 219 220 220 220 216 215 216 217 219 218 219 218 220 218 219 222 220 220
358 0 3 359 352 359 359 2 2 3 356 338 302 293 293 287 274 270 267 266 247 234 227 224 226 226 222 219 219 220 219 218 217 216 212 214 219 218 221 224 225 221 221 222
357 356 356 351 344 350 349 352 3 359 349 338 323 294 288 280 266 260 261 262 254 240 233 226 227 228 227 221 220 221 223 222 224 223 218 221 218 221 220 222 228 219 221 225
354 354 356 354 360 0 349 350 356 359 356 340 333 313 288 278 269 259 258 259 254 247 238 234 229 230 230 226 224 224 225 224 224 223 224 224 223 222 218 223 223 222 224 226
352 356 357 354 357 353 360 358 1 360 357 353 344 327 316 291 270 258 258 253 250 247 241 235 232 230 230 228 228 229 230 228 226 226 228 228 229 227 229 226 229 226 231 233
352 353 356 352 356 3 356 359 359 354 349 344 337 334 321 299 281 266 256 250 246 244 240 238 234 232 233 232 230 230 229 229 228 230 230 230 232 230 229 231 231 228 229 231
347 353 352 355 354 347 359 359 357 358 351 351 343 338 331 318 302 284 258 247 245 244 241 236 234 234 234 233 233 231 231 231 230 230 232 233 234 233 232 233 231 230 233 233
353 350 351 353 354 351 352 355 356 357 354 354 349 341 337 329 315 297 269 250 248 244 241 237 235 233 234 234 232 231 231 232 233 231 232 233 233 232 232 232 232 232 231 230
348 348 344 344 344 341 345 352 354 359 349 349 345 340 338 327 313 306 283 262 250 244 241 238 236 235 234 235 234 232 232 232 233 233 232 231 232 233 232 232 232 234 232 233
341 348 345 351 348 344 351 354 350 344 344 344 343 340 334 326 317 308 295 270 256 246 242 239 236 234 234 235 234 234 233 233 233 233 233 231 232 232 233 232 233 232 232 233
337 337 341 337 337 338 334 337 338 340 340 340 341 338 334 328 319 312 303 282 259 250 243 240 236 235 234 233 232 235 237 237 236 234 234 233 233 232 233 233 234 233 234 235
330 332 335 341 341 334 329 332 335 336 336 337 337 336 334 328 319 311 305 290 270 253 247 241 236 234 234 233 234 236 237 238 237 235 236 235 235 235 233 233 234 234 235 235
326 336 335 332 331 334 335 337 338 338 337 337 336 335 332 327 319 312 305 293 278 261 250 244 240 236 235 235 236 236 238 238 238 238 236 236 235 235 235 235 234 235 235 237
322 331 338 335 336 340 339 341 341 339 338 337 336 336 334 329 321 314 305 296 283 269 256 247 243 239 237 236 236 238 238 238 238 237 237 237 237 236 236 236 236 236 237 238